This is the latest recevied weather packets stored in our database for station/object KO4ZGL-13. If no packets are shown the sender has not sent any weather packets the latest 10 day(s).
| Time | Temp. | Humidity | Pressure | Rain* | Wind** | Luminosity | Snow |
|---|---|---|---|---|---|---|---|
| 1788098892 | 25° C | 99% | 1022.4 hPa | 0 mm | - | 223 W/m² | - |
| 1788098587 | 25° C | 99% | 1022.5 hPa | 0 mm | - | 166 W/m² | - |
| 1788098282 | 25° C | 99% | 1022.4 hPa | 0 mm | - | 117 W/m² | - |
| 1788097977 | 25° C | 99% | 1022.6 hPa | 0 mm | - | 99 W/m² | - |
| 1788097673 | 25° C | 99% | 1022.4 hPa | 0 mm | - | 81 W/m² | - |
| 1788097374 | 25° C | 99% | 1022.3 hPa | 0 mm | - | 92 W/m² | - |
| 1788097068 | 24.44° C | 99% | 1022.2 hPa | 0 mm | - | 86 W/m² | - |
| 1788096764 | 24.44° C | 99% | 1022.5 hPa | 0 mm | - | 81 W/m² | - |
| 1788096459 | 25° C | 99% | 1022.3 hPa | 0 mm | - | 78 W/m² | - |
| 1788096155 | 25° C | 99% | 1022.3 hPa | 0 mm | - | 90 W/m² | - |
| 1788095854 | 24.44° C | 99% | 1022.1 hPa | 0 mm | - | 104 W/m² | - |
| 1788095549 | 24.44° C | 99% | 1022.2 hPa | 0 mm | - | 61 W/m² | - |
| 1788095244 | 24.44° C | 99% | 1022.3 hPa | 0 mm | - | 64 W/m² | - |
| 1788094944 | 24.44° C | 99% | 1022.2 hPa | 0 mm | - | 55 W/m² | - |
| 1788094638 | 24.44° C | 99% | 1022.2 hPa | 0 mm | - | 58 W/m² | - |
| 1788094333 | 24.44° C | 99% | 1022.3 hPa | 0 mm | - | 55 W/m² | - |
| 1788094031 | 24.44° C | 99% | 1022.3 hPa | 0 mm | - | 57 W/m² | - |
| 1788093727 | 24.44° C | 99% | 1022 hPa | 0 mm | - | 50 W/m² | - |
| 1788093424 | 24.44° C | 99% | 1022 hPa | 0 mm | - | 67 W/m² | - |
| 1788093120 | 24.44° C | 99% | 1021.7 hPa | 0 mm | - | 68 W/m² | - |
| 1788092817 | 24.44° C | 99% | 1021.8 hPa | 0 mm | - | 65 W/m² | - |
| 1788092511 | 24.44° C | 99% | 1022 hPa | 0 mm | - | 67 W/m² | - |
| 1788092207 | 23.89° C | 99% | 1021.6 hPa | 0 mm | - | 45 W/m² | - |
| 1788091907 | 23.89° C | 99% | 1021.7 hPa | 0 mm | - | 26 W/m² | - |
| 1788091601 | 23.89° C | 99% | 1021.5 hPa | 0 mm | - | 32 W/m² | - |
* Rain latest hour (hover to see other rain measurements)
** Current wind speed in m/s (hover to see current wind gust speed)